Location: Caracas
(10.5033°N, 66.8422°W)
Time: 18:57:03
(UTC-04:00)

Tiangong 2 - Pass Details

Date: 16 November 2017
Orbit: 386 x 391 km, 42.8° (Epoch: 20 November)

Event Time Altitude Azimuth Distance (km) Brightness Sun altitude
Rises 18:43:01 0° 321° (NW) 2,255 5.3 -10.6°
Reaches altitude 10° 18:45:08 10° 327° (NNW) 1,401 4.1 -11.1°
Maximum altitude 18:48:12 49° 44° (NE) 502 1.3 -11.8°
Enters shadow 18:50:50 13° 118° (ESE) 1,229 3.2 -12.4°
